Regional Weather Roundup
Issued by NWS

Current Version | Previous Version | Text Only | Print | Product List | Glossary On
Versions: 1 2 3 4 5 6 7 8 9 10 11 12 13 14 15 16 17 18 19 20 21 22 23 24 25 26 27 28 29 30 31 32 33 34 35 36 37 38 39 40 41 42 43 44 45 46 47 48 49 50
000
ASUS43 KLSX 040607
RWRMO

WEATHER SUMMARY FOR MISSOURI
NATIONAL WEATHER SERVICE SPRINGFIELD MO
100 AM CDT TUE OCT 04 2022

NOTE: "FAIR" INDICATES FEW OR NO CLOUDS BELOW 12,000 FEET WITH NO
       SIGNIFICANT WEATHER AND/OR OBSTRUCTIONS TO VISIBILITY.
       CURRENT SKY AND/OR WEATHER CONDITIONS ARE NOT AVAILABLE FOR
       CHILLICOTHE AND FARMINGTON.

MOZ001>031-035>038-043-044-053-054-040700-
...NORTHERN AND WESTERN MISSOURI...

CITY           SKY/WX    TMP DP  RH WIND       PRES   REMARKS
KANSAS CTY INT MOCLDY    63  48  58 SE10      30.19S
6HR MIN TEMP:  63; 6HR MAX TEMP:  76;

KANSAS C DTWN  FAIR      65  48  54 E3        30.18F
6HR MIN TEMP:  65; 6HR MAX TEMP:  78;

LEE`S SUMMIT   FAIR      62  47  57 SE7       30.20S
6HR MIN TEMP:  62; 6HR MAX TEMP:  73;

ST JOSEPH      FAIR      60  49  66 SE9       30.19S
6HR MIN TEMP:  52; 6HR MAX TEMP:  69;

CHILLICOTHE      N/A     58  46  64 CALM      30.23F
6HR MIN TEMP:  58; 6HR MAX TEMP:  73;

KIRKSVILLE     FAIR      47  41  80 CALM      30.24S
6HR MIN TEMP:  47; 6HR MAX TEMP:  65;


$$
MOZ066>068-077>081-088>096-101>105-040700-
...SOUTHWEST MISSOURI...

CITY           SKY/WX    TMP DP  RH WIND       PRES   REMARKS
SPRINGFIELD    FAIR      59  44  57 SE9       30.20F
6HR MIN TEMP:  59; 6HR MAX TEMP:  74;

JOPLIN         FAIR      62  48  60 E6        30.18S
6HR MIN TEMP:  58; 6HR MAX TEMP:  77;

BRANSON        FAIR      55  48  76 CALM      30.22F

$$
MOZ032>034-039>042-045>050-055>058-069>072-040700-
...CENTRAL MISSOURI...

CITY           SKY/WX    TMP DP  RH WIND       PRES   REMARKS
COLUMBIA       FAIR      53  40  61 E3        30.23S
6HR MIN TEMP:  53; 6HR MAX TEMP:  70;

JEFFERSON CITY FAIR      50  43  77 CALM      30.23S
6HR MIN TEMP:  50; 6HR MAX TEMP:  72;

ROLLA          FAIR      52  37  56 E6        30.23F
6HR MIN TEMP:  50; 6HR MAX TEMP:  65;

SEDALIA        FAIR      55  42  61 SE6       30.22F
6HR MIN TEMP:  55; 6HR MAX TEMP:  72;

WHITEMAN AFB   CLEAR     56  42  61 E5        30.16S
WARRENSBURG    FAIR      57  43  58 E5        30.21S
OSAGE BEACH    FAIR      49  42  77 CALM        N/A

$$
MOZ051-052-059>065-040700-
...EAST CENTRAL MISSOURI...

CITY           SKY/WX    TMP DP  RH WIND       PRES   REMARKS
ST LOUIS INTL  FAIR      53  41  63 CALM      30.24S
6HR MIN TEMP:  53; 6HR MAX TEMP:  69;

SPIRIT OF STL  FAIR      43  42  97 CALM      30.23S
6HR MIN TEMP:  42; 6HR MAX TEMP:  58;

ST CHARLES     FAIR      48  41  76 CALM      30.23S
6HR MIN TEMP:  47; 6HR MAX TEMP:  61;


$$
MOZ072>076-082>087-097>100-106>115-040700-
...SOUTH CENTRAL AND SOUTHEAST MISSOURI...

CITY           SKY/WX    TMP DP  RH WIND       PRES   REMARKS
CAPE GIRARDEAU FAIR      43  42  97 CALM      30.21F
6HR MIN TEMP:  43; 6HR MAX TEMP:  65;

FARMINGTON     FAIR      44  40  85 CALM      30.24S
6HR MIN TEMP:  44; 6HR MAX TEMP:  62;

POPLAR BLUFF   FAIR      46  42  86 N5        30.20F
6HR MIN TEMP:  46; 6HR MAX TEMP:  66;

WEST PLAINS    FAIR      44  41  89 NE6       30.23F
6HR MIN TEMP:  44; 6HR MAX TEMP:  68;


$$



USA.gov is the U.S. government's official web portal to all federal, state and local government web resources and services.